STARLINK-3276, 50189

Orbit data source: Space-Track

STARLINK-3276, 50189 is a payload satellite owned by SpaceX/Seattle (US) in LEO that was launched on Sat, 18 Dec 2021 UTC via an FALCON 9 launch vehicle from the Air Force Western Test Range (AFWTR). Payload-class satellites include a variety of spacecraft equipped with specific instruments for various scientific and technological missions. These include communications satellites like Starlink; space stations such as the ISS; scientific satellites like the Hubble; Earth observation satellites from companies like Planet Labs, Umbra, and HawkEye 360; GPS; miniature CubeSats for education and research; and military/defense satellites.

Loading next visibility...
Identifier
50189, 2021-125AK
Orbit
LEO
Country
Flag of USUS
Related business
Manufacturer
SpaceX/Seattle
Mission
Operational Commercial Communications
Bus & Motor
STARLINK, Unknown motor
Mass
290 kg wet, ~270 kg dry
Launch date (UTC)
2021-12-18 (5 years ago)
Launch vehicle
FALCON 9
Launch site
Air Force Western Test Range (AFWTR)
Object type
Payload
Rocket body
Debris
Shape & HBR
Box + 1 Pan, 10.1 m
Radar Cross Section
13.562 m², Large (>1 m²)

Expand to show TLE details & history
Last TLE update: 11 hours ago

TLE from 11 hours ago
0 STARLINK-3276
1 50189U 21125AK  26169.67184764  .00017984  00000-0  92572-3 0  9998
2 50189  53.2109 150.9170 0004066  69.4787 290.6645 15.16495363251952
Epoch: 2026-06-18T16:07Z
TLE epoch observation values (Epoch: 2026-06-18T16:07:27.636Z)
Latitude
0.00004°
Longitude
2.14006°
Altitude
516.354 km
Speed
7.607 km/s
True Right ascension
10h 03m 40s
True Declination
0° 00' 00"
Sunlit
Object was in daylight at epoch
Visualization orbit readout
Latitude
Unknown
Longitude
Unknown
Altitude
Unknown
Speed
Unknown
Apparent Right ascension
Unknown
Apparent Declination
Unknown
Sunlit
N/A
Visualization observer readout
Local Sidereal Time
13:59:56
Azimuth
Unknown
Elevation
Unknown
Doppler factor
Unknown
Orbital elements
Apogee altitude
519.493 km
Perigee altitude
513.886 km
Semi-major axis
6,894.826 km
Eccentricity
0.00041
Inclination
53.2109°
RAAN
150.917°
Arg. of periapsis
69.4787°
True anomaly
290.6209°
Mean anomaly
290.6645°
Eccentric anomaly
290.6427°
Mean motion
3.79104 °/min
Orbital period
94.96 mins
BSTAR
0.00092572
Loading maneuver chart data...
Computing Atmospheric mass density...

Documentation

Showing up to 5 results
|